Regional Weather Roundup
Issued by NWS

Home | Current Version | Previous Version | Text Only | Print | Product List | Glossary On
Versions: 1 2 3 4 5 6 7 8 9 10 11 12 13 14 15 16 17 18 19 20 21 22 23 24 25 26 27 28 29 30 31 32 33 34 35 36 37 38 39 40 41 42 43 44 45 46 47 48 49 50
000
ASUS45 KREV 011310
RWRNV
NEVADA REGIONAL WEATHER ROUNDUP
NATIONAL WEATHER SERVICE RENO NV
600 AM PDT TUE SEP 01 2015

NOTE: "FAIR" INDICATES FEW OR NO CLOUDS BELOW 12,000 FEET WITH NO
SIGNIFICANT WEATHER AND/OR OBSTRUCTIONS TO VISIBILITY.

NVZ001-003-004-011400-
WESTERN NEVADA

CITY           SKY/WX    TMP DP  RH WIND       PRES   REMARKS
RENO           CLEAR     55  31  39 SE3       30.02S
CARSON CITY    FAIR      50  32  50 CALM      30.03S
MINDEN         FAIR      43  32  65 SE8       30.03S
SLIDE MTN        N/A     48  25  40 SW6         N/A
PYRAMID LAKE     N/A     68 N/A N/A SW6         N/A
FALLON         CLEAR     53  25  33 S9        29.95S
LOVELOCK       CLEAR     49  24  37 S3        29.95S
HAWTHORNE      CLEAR     59  32  36 CALM      29.98R
$$

NVZ002-CAZ072-073-011400-
NORTHERN AND CENTRAL SIERRA

CITY           SKY/WX    TMP DP  RH WIND       PRES   REMARKS
S. LAKE TAHOE  CLEAR     40  30  67 S3        30.12S
TRUCKEE        CLEAR     32  25  74 CALM      30.13S
SQUAW VLY 8000   N/A     50  32  50 S6          N/A
SUSANVILLE     CLEAR     52  32  46 CALM      30.02R
BLUE CANYON    CLEAR     62  33  33 E3        30.08S
MAMMOTH LAKES  FAIR      41  27  56 N3        30.17S
BRIDGEPORT     FAIR      40  26  57 CALM      30.14R
$$

NVZ030-031-036-011400-
NORTHERN NEVADA

CITY           SKY/WX    TMP DP  RH WIND       PRES   REMARKS
ELKO           PTCLDY    49  25  39 E7        30.03S
WINNEMUCCA     PTCLDY    42  21  43 CALM      29.98R
WENDOVER       PTCLDY    63  39  42 NE6       29.97R
$$

NVZ035-037-011400-
CENTRAL NEVADA

CITY           SKY/WX    TMP DP  RH WIND       PRES   REMARKS
ELY            PTCLDY    54  38  54 S13       30.13S
EUREKA           N/A     51  27  39 S3        30.08S
$$

NVZ013-014-011400-
SOUTH CENTRAL NEVADA

CITY           SKY/WX    TMP DP  RH WIND       PRES   REMARKS
TONOPAH        CLEAR     54  24  31 N12       30.07S
$$

NVZ017-020-022-011400-
SOUTHERN NEVADA

CITY           SKY/WX    TMP DP  RH WIND       PRES   REMARKS
LAS VEGAS      CLEAR     83  39  21 S7        29.84R
N. LAS VEGAS   CLEAR     75  39  27 CALM      29.87R
NELLIS AFB     CLEAR     78  41  26 N1        29.86R
HENDERSON      CLEAR     81  40  23 S14       29.91R
MERCURY        CLEAR     67  29  24 E3        29.93R
$$


USA.gov is the U.S. government's official web portal to all federal, state and local government web resources and services.